Flag for U.S.A. Weather past 2 weeks in Escondido, California, U.S.A.

Now
62 °F

Low clouds.


Feels Like: 62 °F
Forecast: 62 / 77 °F
Wind: 5 mph from South

Location: Ramona Airport

Current Time: Jul 7, 2015 at 9:03:25 AM

Latest Report: Jul 7, 2015 at 7:53 AM


Visibility: 7 mi

Pressure: 29.99 "Hg

Humidity: 86%

Dew point: 58 °F

Location of EscondidoLocation

Historic Weather in Escondido — Graph

°F

Escondido temperature yesterday

Maximum temperature yesterday: 79 °F (at 1:53 PM)
Minimum temperature yesterday: 61 °F (at 2:02 AM)
Average temperature yesterday: 66 °F

Past Weeks' High & Low Weather Summary

 TemperatureHumidityPressure
High93 °F (Jun 23, 1:53 PM)100% (Jul 3, 6:53 AM)30.04 "Hg (Jul 3, 6:53 AM)
Low53 °F (Jun 23, 5:53 AM)17% (Jun 24, 9:53 AM)29.80 "Hg (Jun 30, 6:53 PM)
Average72 °F64%29.91 "Hg
* Reported Jun 22 7:54 AM — Jul 7 7:53 AM, Escondido, Weather by CustomWeather, © 2015

Note: Actual official high and low records may vary slightly from our data, if they occured in-between our weather recording intervals... More about our weather records

Advertising

Escondido weather history for previous 24 hours

 ConditionsComfort  
Time TempWeatherWind HumidityBarometerVisibility
7:53 AM
Tue, Jul 7
62 °FLow clouds.5 mph86%29.99 "Hg7 mi
6:53 AM62 °FLow clouds.No wind86%29.97 "Hg7 mi
5:53 AM63 °FLow clouds.No wind84%29.95 "Hg8 mi
4:53 AM63 °FLow clouds.No wind84%29.94 "Hg9 mi
3:53 AM63 °FLow clouds.5 mph84%29.95 "Hg10 mi
2:53 AM63 °FLow clouds.3 mph84%29.94 "Hg10 mi
2:04 AM63 °FLow clouds.No wind84%30.00 "Hg10 mi
12:53 AM63 °FLow clouds.No wind84%29.97 "Hg10 mi
11:53 PM
Mon, Jul 6
63 °FLow clouds.3 mph84%29.98 "Hg10 mi
10:53 PM63 °FLow clouds.No wind84%29.99 "Hg10 mi
10:02 PM63 °FLow clouds.5 mph84%30.03 "Hg10 mi
9:53 PM63 °FLow clouds.5 mph84%29.99 "Hg10 mi
8:53 PM63 °FLow clouds.7 mph84%29.98 "Hg10 mi
7:53 PM63 °FPassing clouds.10 mph84%29.97 "Hg10 mi
6:53 PM69 °FSunny.12 mph70%29.95 "Hg10 mi
5:53 PM74 °FSunny.9 mph60%29.94 "Hg10 mi
4:53 PM76 °FSunny.12 mph58%29.94 "Hg10 mi
3:53 PM77 °FScattered clouds.10 mph56%29.96 "Hg10 mi
2:53 PM77 °FSunny.13 mph58%29.97 "Hg10 mi
1:53 PM79 °FScattered clouds.12 mph54%29.97 "Hg10 mi
12:53 PM77 °FSunny.5 mph54%29.99 "Hg10 mi
11:53 AM70 °FScattered clouds.6 mph68%30.02 "Hg10 mi
10:53 AM66 °FOvercast.No wind78%30.03 "Hg10 mi
9:53 AM64 °FLow clouds.5 mph81%30.04 "Hg10 mi
Weather by CustomWeather, © 2015

See weather overviewHow to use our weather pages